Location: Earls Croome
(52.0667°N, 2.2000°W)
Time: 08:46:45
(UTC+00:00)

Cosmos 1725 Rocket - Pass Details

Date: 17 November 2019
Orbit: 962 x 990 km, 82.9° (Epoch: 14 December)

Event Time Altitude Azimuth Distance (km) Brightness Sun altitude
Rises 06:04:09 0° 193° (SSW) 3,667 7.0 -13.2°
Reaches altitude 10° 06:06:39 10° 195° (SSW) 2,728 6.3 -12.9°
Maximum altitude 06:12:55 77° 281° (WNW) 1,016 4.0 -11.9°
Drops below altitude 10° 06:19:16 10° 8° (N) 2,762 6.3 -11.0°
Sets 06:21:49 0° 10° (N) 3,717 7.0 -10.6°
